TimeEDT,TemperatureF,Dew PointF,Humidity,Sea Level PressureIn,VisibilityMPH,Wind Direction,Wind SpeedMPH,Gust SpeedMPH,PrecipitationIn,Events,Conditions,WindDirDegrees,DateUTC
12:43 AM,57.2,53.6,88,29.50,10.0,South,4.6,-,N/A,,Overcast,180,2012-11-01 04:43:00
12:53 AM,57.0,54.0,89,29.51,9.0,Variable,5.8,-,N/A,,Overcast,0,2012-11-01 04:53:00
1:03 AM,57.2,53.6,88,29.51,2.5,SW,10.4,19.6,0.03,Rain,Rain,220,2012-11-01 05:03:00
1:16 AM,55.4,51.8,88,29.51,6.0,SSW,6.9,-,0.04,Rain,Light Rain,200,2012-11-01 05:16:00
1:53 AM,54.0,51.1,90,29.52,10.0,SSW,10.4,16.1,0.04,,Overcast,210,2012-11-01 05:53:00
2:28 AM,51.8,48.2,88,29.52,10.0,SW,4.6,-,N/A,,Mostly Cloudy,230,2012-11-01 06:28:00
2:37 AM,51.8,50.0,94,29.53,10.0,South,3.5,-,N/A,,Mostly Cloudy,190,2012-11-01 06:37:00
2:53 AM,51.8,48.2,88,29.52,10.0,South,3.5,-,N/A,,Overcast,190,2012-11-01 06:53:00
3:13 AM,51.8,48.2,88,29.52,10.0,South,3.5,-,N/A,,Scattered Clouds,180,2012-11-01 07:13:00
3:26 AM,51.8,48.2,88,29.52,10.0,South,4.6,-,N/A,,Partly Cloudy,190,2012-11-01 07:26:00
3:53 AM,51.1,48.0,89,29.53,10.0,Variable,3.5,-,N/A,,Partly Cloudy,0,2012-11-01 07:53:00
4:41 AM,50.0,48.2,94,29.53,10.0,Calm,Calm,-,N/A,,Mostly Cloudy,0,2012-11-01 08:41:00
4:53 AM,50.0,46.9,89,29.53,10.0,SSW,4.6,-,N/A,,Overcast,200,2012-11-01 08:53:00
5:32 AM,48.2,46.4,93,29.53,10.0,South,3.5,-,N/A,,Scattered Clouds,190,2012-11-01 09:32:00
5:53 AM,48.0,46.0,93,29.53,10.0,SSE,5.8,-,N/A,,Partly Cloudy,150,2012-11-01 09:53:00
6:36 AM,48.2,46.4,93,29.54,10.0,Calm,Calm,-,N/A,,Mostly Cloudy,0,2012-11-01 10:36:00
6:53 AM,48.9,46.0,90,29.55,10.0,SSE,3.5,-,N/A,,Mostly Cloudy,160,2012-11-01 10:53:00
7:53 AM,48.9,46.0,90,29.56,10.0,SSE,5.8,-,N/A,,Overcast,160,2012-11-01 11:53:00
8:19 AM,48.2,46.4,93,29.55,10.0,SE,5.8,-,N/A,,Mostly Cloudy,140,2012-11-01 12:19:00
8:53 AM,50.0,46.9,89,29.55,10.0,SE,6.9,-,N/A,,Partly Cloudy,140,2012-11-01 12:53:00
9:20 AM,50.0,46.4,87,29.55,10.0,SSE,8.1,-,N/A,,Partly Cloudy,160,2012-11-01 13:20:00
9:53 AM,51.1,46.9,86,29.56,10.0,Variable,3.5,-,N/A,,Overcast,0,2012-11-01 13:53:00
10:53 AM,51.1,46.0,83,29.57,10.0,South,5.8,-,N/A,,Overcast,170,2012-11-01 14:53:00
11:12 AM,51.8,46.4,82,29.56,10.0,South,5.8,-,N/A,,Overcast,180,2012-11-01 15:12:00
11:34 AM,51.8,46.4,82,29.55,10.0,Variable,4.6,-,0.00,,Overcast,0,2012-11-01 15:34:00
11:45 AM,51.8,48.2,88,29.55,10.0,South,4.6,-,0.00,,Overcast,180,2012-11-01 15:45:00
11:53 AM,52.0,48.0,86,29.55,10.0,Variable,3.5,-,0.00,,Overcast,0,2012-11-01 15:53:00
12:53 PM,53.1,46.9,80,29.53,10.0,South,3.5,-,N/A,,Overcast,190,2012-11-01 16:53:00
1:53 PM,52.0,46.0,80,29.52,10.0,SSE,6.9,-,N/A,,Overcast,160,2012-11-01 17:53:00
2:53 PM,52.0,46.0,80,29.51,10.0,SSW,4.6,-,N/A,,Overcast,200,2012-11-01 18:53:00
3:26 PM,50.0,46.4,87,29.50,4.0,Calm,Calm,-,0.00,Rain,Light Rain,0,2012-11-01 19:26:00
3:53 PM,50.0,48.0,93,29.50,4.0,SSE,3.5,-,0.01,Rain,Light Rain,160,2012-11-01 19:53:00
4:35 PM,50.0,48.2,94,29.49,3.0,Calm,Calm,-,0.02,Rain,Light Rain,0,2012-11-01 20:35:00
4:53 PM,50.0,46.9,89,29.49,3.0,Calm,Calm,-,0.03,Rain,Light Rain,0,2012-11-01 20:53:00
5:43 PM,48.2,46.4,93,29.49,3.0,Calm,Calm,-,0.03,Rain,Light Rain,0,2012-11-01 21:43:00
5:53 PM,48.9,46.9,93,29.49,4.0,Calm,Calm,-,0.03,Rain,Light Rain,0,2012-11-01 21:53:00
6:00 PM,48.2,46.4,93,29.48,4.0,Calm,Calm,-,0.00,Rain,Light Rain,0,2012-11-01 22:00:00
6:32 PM,48.2,46.4,93,29.48,10.0,Calm,Calm,-,0.00,,Overcast,0,2012-11-01 22:32:00
6:53 PM,48.9,46.9,93,29.49,10.0,Calm,Calm,-,0.01,,Overcast,0,2012-11-01 22:53:00
7:45 PM,48.2,46.4,93,29.48,3.0,Calm,Calm,-,0.00,,Overcast,0,2012-11-01 23:45:00
7:53 PM,48.9,46.9,93,29.49,2.0,Calm,Calm,-,0.00,,Overcast,0,2012-11-01 23:53:00
8:03 PM,48.2,46.4,93,29.48,3.0,Calm,Calm,-,N/A,,Overcast,0,2012-11-02 00:03:00
8:28 PM,48.2,46.4,93,29.47,6.0,Calm,Calm,-,N/A,,Overcast,0,2012-11-02 00:28:00
8:53 PM,48.9,46.9,93,29.48,5.0,Calm,Calm,-,N/A,,Overcast,0,2012-11-02 00:53:00
9:07 PM,48.2,46.4,93,29.48,4.0,Calm,Calm,-,N/A,,Overcast,0,2012-11-02 01:07:00
9:40 PM,48.2,46.4,93,29.47,5.0,Calm,Calm,-,0.01,,Overcast,0,2012-11-02 01:40:00
9:48 PM,48.2,46.4,93,29.47,4.0,Calm,Calm,-,0.01,Rain,Light Rain,0,2012-11-02 01:48:00
9:53 PM,48.9,46.9,93,29.48,4.0,Calm,Calm,-,0.01,Rain,Light Rain,0,2012-11-02 01:53:00
10:11 PM,48.2,46.4,93,29.47,4.0,Calm,Calm,-,0.01,Rain,Light Rain,0,2012-11-02 02:11:00
10:20 PM,48.2,46.4,93,29.47,7.0,Calm,Calm,-,0.01,,Overcast,0,2012-11-02 02:20:00
10:32 PM,48.2,46.4,93,29.47,9.0,SSW,3.5,-,0.01,,Overcast,210,2012-11-02 02:32:00
10:45 PM,48.2,46.4,93,29.47,10.0,SW,3.5,-,0.01,,Overcast,220,2012-11-02 02:45:00
10:53 PM,48.9,46.9,93,29.48,10.0,SSW,3.5,-,0.01,,Overcast,200,2012-11-02 02:53:00
11:53 PM,48.9,46.9,93,29.47,10.0,Calm,Calm,-,N/A,,Overcast,0,2012-11-02 03:53:00